Location: Quedlinburg
(51.7921°N, 11.1414°E)
Time: 20:56:03
(UTC+02:00)

CUBESAT XI-V - Pass Details

Date: 25 March 2026
Orbit: 643 x 664 km, 98.3° (Epoch: 14 April)

Event Time Altitude Azimuth Distance (km) Brightness Sun altitude
Exits shadow 03:02:23 69° 52° (NE) 698 ? -26.6°
Drops below altitude 10° 03:06:40 10° 349° (N) 2,059 ? -26.1°
Sets 03:08:53 0° 347° (NNW) 2,972 ? -25.9°
